Flag for Greece Weather past 2 weeks in Preveza, Greece

68 °F

Passing clouds.

Feels Like: 68 °F
Forecast: 65 / 76 °F
Wind: No wind

Location: Aktion Airport

Current Time: Oct 9, 2015 at 2:01:14 AM

Latest Report: Oct 9, 2015 at 1:20 AM

Visibility: N/A

Pressure: 29.98 "Hg

Humidity: 78%

Dew point: 61 °F

Location of PrevezaLocation

Historic Weather in Preveza — Graph


Preveza temperature yesterday

Maximum temperature yesterday: 77 °F (at 1:20 PM)
Minimum temperature yesterday: 63 °F (at 12:50 AM)
Average temperature yesterday: 70 °F

Past Weeks' High & Low Weather Summary

High81 °F (Sep 24, 2:50 PM)100% (Oct 1, 3:50 AM)30.27 "Hg (Oct 1, 3:50 AM)
Low63 °F (Sep 26, 11:50 PM)30% (Sep 26, 7:50 AM)29.74 "Hg (Oct 7, 5:20 PM)
Average71 °F69%30.01 "Hg
* Reported Sep 23 11:50 PM — Oct 8 11:50 PM, Preveza, Weather by CustomWeather, © 2015

Note: Actual official high and low records may vary slightly from our data, if they occured in-between our weather recording intervals... More about our weather records


Preveza weather history for previous 24 hours

Time TempWeatherWind HumidityBarometerVisibility
11:50 PM
Thu, Oct 8
72 °FPassing clouds.5 mph69%30.01 "HgN/A
11:20 PM72 °FPassing clouds.7 mph73%30.01 "HgN/A
10:50 PM72 °FPassing clouds.8 mph73%29.98 "HgN/A
10:20 PM72 °FPassing clouds.8 mph69%29.98 "HgN/A
9:50 PM72 °FPassing clouds.10 mph73%29.98 "HgN/A
9:20 PM72 °FPassing clouds.9 mph73%29.98 "HgN/A
8:50 PM70 °FPassing clouds.8 mph73%29.98 "HgN/A
8:20 PM72 °FPassing clouds.9 mph69%29.95 "HgN/A
7:50 PM70 °FPassing clouds.10 mph73%29.95 "HgN/A
7:20 PM72 °FPassing clouds.9 mph69%29.95 "HgN/A
6:50 PM72 °FPassing clouds.9 mph69%29.95 "HgN/A
6:20 PM73 °FPassing clouds.10 mph69%29.92 "HgN/A
5:50 PM73 °FPassing clouds.9 mph69%29.92 "HgN/A
5:20 PM75 °FPassing clouds.9 mph65%29.92 "HgN/A
4:50 PM75 °FPassing clouds.12 mph65%29.92 "HgN/A
4:20 PM75 °FPassing clouds.10 mph65%29.92 "HgN/A
3:50 PM77 °FPassing clouds.9 mph61%29.92 "HgN/A
3:20 PM77 °FPassing clouds.8 mph61%29.92 "HgN/A
2:50 PM75 °FPassing clouds.7 mph65%29.92 "HgN/A
2:20 PM75 °FPassing clouds.7 mph65%29.92 "HgN/A
1:50 PM75 °FPassing clouds.6 mph65%29.92 "HgN/A
1:20 PM77 °FPassing clouds.No wind61%29.92 "HgN/A
12:50 PM75 °FPassing clouds.3 mph61%29.92 "HgN/A
12:20 PM75 °FPassing clouds.No wind61%29.92 "HgN/A
11:50 AM73 °FPassing clouds.No wind61%29.92 "HgN/A
11:20 AM72 °FPassing clouds.3 mph69%29.92 "HgN/A
10:50 AM70 °FPassing clouds.3 mph73%29.92 "HgN/A
10:20 AM70 °FPassing clouds.5 mph73%29.89 "HgN/A
9:50 AM68 °FPassing clouds.3 mph78%29.89 "HgN/A
9:20 AM68 °FPassing clouds.5 mph73%29.89 "HgN/A
8:50 AM66 °FScattered clouds.8 mph73%29.86 "HgN/A
8:20 AM64 °FPassing clouds.8 mph78%29.86 "HgN/A
7:50 AM64 °FPassing clouds.7 mph78%29.83 "HgN/A
7:20 AM63 °FPassing clouds.6 mph83%29.83 "HgN/A
6:20 AM64 °FPassing clouds.8 mph83%29.83 "HgN/A
5:50 AM64 °FPartly cloudy.7 mph83%29.80 "HgN/A
4:50 AM64 °FPartly cloudy.8 mph78%29.80 "HgN/A
4:20 AM64 °FPartly cloudy.8 mph83%29.80 "HgN/A
3:50 AM66 °FPartly cloudy.No wind78%29.80 "HgN/A
2:50 AM66 °FPartly cloudy.9 mph78%29.80 "HgN/A
2:20 AM63 °FMostly cloudy.No wind88%29.80 "HgN/A
Weather by CustomWeather, © 2015

See weather overviewHow to use our weather pages